Skip Page Navigation
NASA JPL Caltech
NASA Logo - Jet Propulsion Laboratory + View the NASA Portal
+ Center for Near-Earth Object Studies
JPL Home Earth Solar System Stars & Galaxies Technology
JPL Solar System Dynamics
BODIES ORBITS EPHEMERIDES TOOLS PHYSICAL DATA DISCOVERY FAQ SITE MAP
JPL Small-Body Database Browser
Search: [ help ]  
351012 (2003 QF43)
Classification: Main-belt Asteroid          SPK-ID: 2351012
Ephemeris | Orbit Diagram | Orbital Elements | Mission Design | Physical Parameters | Discovery Circumstances | Close-Approach Data ]

[ show orbit diagram ]
Orbital Elements at Epoch 2459000.5 (2020-May-31.0) TDB
Reference: JPL 5 (heliocentric ecliptic J2000)
 Element Value Uncertainty (1-sigma)   Units 
e .2878604688870475 9.4133e-08  
a 2.598860518933064 4.445e-08 au
q 1.850751311380957 2.4594e-07 au
i 4.375517080096234 9.6373e-06 deg
node 335.6018409335919 0.00012561 deg
peri 40.71727503200065 0.00013208 deg
M 342.897387322653 5.7286e-05 deg
tp 2459073.199737666762
(2020-Aug-11.69973767)
0.00024533 TDB
period 1530.286983268934
4.19
3.926e-05
1.075e-07
d
yr
n .2352499916263962 6.0355e-09 deg/d
Q 3.346969726485172 5.7245e-08 au
  Orbit Determination Parameters
   # obs. used (total)      95  
   data-arc span      7171 days (19.63 yr)  
   first obs. used      1999-11-03  
   last obs. used      2019-06-22  
   planetary ephem.      DE431  
   SB-pert. ephem.      SB431-N16  
   condition code      0  
   norm. resid. RMS      .58785  
   source      ORB  
   producer      Otto Matic  
   solution date      2019-Sep-24 06:36:45  

Additional Information
 Earth MOID = .854624 au 
 Jupiter MOID = 2.13794 au 
 T_jup = 3.352 
[ show covariance matrix ]

Ephemeris | Orbit Diagram | Orbital Elements | Mission Design | Physical Parameters | Discovery Circumstances | Close-Approach Data ]

Physical Parameter Table
Parameter Symbol Value Units Sigma Reference Notes
absolute magnitude H 17.2   n/a MPO249124  

351012 (2003 QF43)          Discovered 2003-Aug-22 by NEAT at Palomar
Reference: 20130127/Numbers.arcLast Updated: 2013-01-31

[ show close-approach data ]
Ephemeris | Orbit Diagram | Orbital Elements | Mission Design | Physical Parameters | Discovery Circumstances | Close-Approach Data ]
ABOUT SSD CREDITS/AWARDS PRIVACY/COPYRIGHT GLOSSARY LINKS
FirstGov 2020-Oct-25 14:53 UT
(server date/time)  
NASA Home Page
Site Manager:   Ryan S. Park
Webmaster  Alan B. Chamberlin